Acapulco / Gro., Mexico

3:54 PM CST on January 17, 2017 (GMT -0600)
Gen Juan N Alvarez International

Weather History for MMAA - February, 2013

Change the Weather History Date:

Sunday, February 17, 2013

  Actual Average Record
Temperature  
Mean Temperature 78 °F -  
Max Temperature 89 °F 88 °F 95 °F (2015)
Min Temperature 68 °F 70 °F 66 °F (2016)
Cooling Degree Days 14    
Growing Degree Days 28 (Base 50)    
Moisture  
Dew Point 71 °F    
Average Humidity 73    
Maximum Humidity 88    
Minimum Humidity 49    
Precipitation  
Precipitation 0.00 in 0.00 in - ()
Sea Level Pressure  
Sea Level Pressure 29.90 in    
Wind  
Wind Speed 3 mph ()    
Max Wind Speed 14 mph    
Max Gust Speed -    
Visibility 8.4 miles    
Events      
Averages and records for this station are not official NWS values.
T = Trace of Precipitation, MM = Missing Value Source: Averaged Metar Reports

Daily Weather History Graph

Daily Weather History Graph

Search for Another Location

Airport or City:

Trip Planner

Search our weather history database for the weather conditions in past years. The results will help you decide how hot, cold, wet, or windy it might be!

Date:

Astronomy

Feb. 17, 2013 Rise Set
Actual Time 7:03 AM CST 6:42 PM CST
Civil Twilight 6:41 AM CST 7:04 PM CST
Nautical Twilight 6:16 AM CST 7:29 PM CST
Astronomical Twilight 5:51 AM CST 7:55 PM CST
Moon 12:07 PM CST 12:31 AM CST
Length of Visible Light 12h 22m
Length of Day
11h 38m
Waxing Crescent, 49% of the Moon is Illuminated
Feb 17
Waxing Crescent
Feb 17
First Quarter
Feb 25
Full
Mar 4
Last Quarter
Mar 11
New

Hourly Weather History & Observations

Time (CST) Temp. Heat Index Dew Point Humidity Pressure Visibility Wind Dir Wind Speed Gust Speed Precip Events Conditions
12:45 AM 77.0 °F - 71.6 °F 83% 29.93 in 8.0 mi Calm Calm - N/A   Clear
1:42 AM 77.0 °F - 71.6 °F 83% 29.92 in 8.0 mi Calm Calm - N/A   Clear
2:42 AM 77.0 °F - 71.6 °F 83% 29.94 in 8.0 mi Calm Calm - N/A   Clear
2:50 AM 72 °F - 69 °F 86% 29.88 in 6 mi NNW 2.2 mph - -   Scattered Clouds
3:42 AM 75.2 °F - 69.8 °F 83% 29.90 in 8.0 mi Calm Calm - N/A   Clear
4:42 AM 75.2 °F - 69.8 °F 83% 29.90 in 8.0 mi Calm Calm - N/A   Clear
5:45 AM 73.4 °F - 69.8 °F 88% 29.92 in 8.0 mi Calm Calm - N/A   Clear
5:50 AM 70 °F - 66 °F 85% 29.89 in 6 mi WNW 2.2 mph - -  
6:42 AM 71.6 °F - 68.0 °F 88% 29.92 in 8.0 mi Calm Calm - N/A   Clear
7:45 AM 73.4 °F - 68.0 °F 83% 29.94 in 8.0 mi Calm Calm - N/A   Partly Cloudy
8:45 AM 77 °F - 67 °F 64% 29.94 in 12 mi NNW 2.2 mph - -   Scattered Clouds
8:45 AM 75.2 °F - 68.0 °F 78% 29.97 in 8.0 mi Calm Calm - N/A   Scattered Clouds
9:43 AM 80.6 °F 84.6 °F 71.6 °F 74% 29.98 in 8.0 mi Calm Calm - N/A   Scattered Clouds
10:44 AM 84.2 °F 90.9 °F 73.4 °F 70% 29.97 in 8.0 mi Calm Calm - N/A   Mostly Cloudy
11:42 AM 87 °F - 70 °F 49% 29.94 in 12 mi SW 6.7 mph - -   Scattered Clouds
11:44 AM 86.0 °F 95.1 °F 75.2 °F 70% 29.96 in 8.0 mi WSW 5.8 mph - N/A   Partly Cloudy
11:50 AM 77 °F - 68 °F 67% 29.94 in 12 mi NNW 2.2 mph - -  
12:56 PM 87.8 °F 97.6 °F 75.2 °F 66% 29.92 in 8.0 mi WSW 9.2 mph - N/A   Clear
1:42 PM 87.8 °F 97.6 °F 75.2 °F 66% 29.88 in 8.0 mi WSW 9.2 mph - N/A   Clear
2:43 PM 87.8 °F 95.6 °F 73.4 °F 62% 29.88 in 8.0 mi West 13.8 mph - N/A   Clear
2:46 PM 86 °F - 71 °F 53% 29.84 in 12 mi West 11.2 mph - -  
3:42 PM 87.8 °F 95.6 °F 73.4 °F 62% 29.83 in 8.0 mi WSW 13.8 mph - N/A   Clear
4:45 PM 87.8 °F 95.6 °F 73.4 °F 62% 29.83 in 8.0 mi WSW 13.8 mph - N/A   Clear
5:44 PM 84 °F - 70 °F 55% 29.83 in 12 mi West 8.9 mph - -  
5:45 PM 86.0 °F 91.8 °F 71.6 °F 62% 29.81 in 8.0 mi WSW 11.5 mph - N/A   Clear
6:45 PM 82.4 °F 88.2 °F 73.4 °F 74% 29.84 in 8.0 mi WSW 11.5 mph - N/A   Clear
7:43 PM 82.4 °F 88.2 °F 73.4 °F 74% 29.86 in 8.0 mi WSW 11.5 mph - N/A   Clear
8:43 PM 82.4 °F 88.2 °F 73.4 °F 74% 29.82 in 8.0 mi WSW 5.8 mph - N/A   Clear
8:46 PM 79 °F - 70 °F 67% 29.91 in 6 mi West 4.5 mph - -  
9:45 PM 80.6 °F 84.6 °F 71.6 °F 74% 29.90 in 8.0 mi WSW 5.8 mph - N/A   Clear
10:45 PM 80.6 °F 84.6 °F 71.6 °F 74% 29.93 in 8.0 mi Calm Calm - N/A   Clear
11:43 PM 75 °F - 71 °F 85% 29.94 in 6 mi NNE 2.2 mph - -  
11:48 PM 78.8 °F - 71.6 °F 78% 29.93 in 8.0 mi Calm Calm - N/A   Clear